This is the latest recevied weather packets stored in our database for station/object K4OBI. If no packets are shown the sender has not sent any weather packets the latest 10 day(s).
| Time | Temp. | Humidity | Pressure | Rain* | Wind** | Luminosity | Snow |
|---|---|---|---|---|---|---|---|
| 1778274141 | 21.11° C | 38% | 1016.6 hPa | 0 mm | - | - | - |
| 1778274081 | 21.67° C | 36% | 1016.6 hPa | 0 mm | - | - | - |
| 1778274023 | 21.67° C | 39% | 1016.5 hPa | 0 mm | - | - | - |
| 1778273962 | 21.67° C | 37% | 1016.5 hPa | 0 mm | - | - | - |
| 1778273901 | 21.67° C | 39% | 1016.6 hPa | 0 mm | - | - | - |
| 1778273841 | 21.67° C | 37% | 1016.6 hPa | 0 mm | - | - | - |
| 1778273782 | 21.67° C | 37% | 1016.5 hPa | 0 mm | - | - | - |
| 1778273723 | 21.67° C | 38% | 1016.6 hPa | 0 mm | - | - | - |
| 1778273663 | 21.67° C | 40% | 1016.7 hPa | 0 mm | - | - | - |
| 1778273602 | 21.67° C | 37% | 1016.6 hPa | 0 mm | - | - | - |
| 1778273541 | 21.67° C | 38% | 1016.7 hPa | 0 mm | - | - | - |
| 1778273481 | 21.11° C | 41% | 1016.7 hPa | 0 mm | - | - | - |
| 1778273423 | 21.11° C | 38% | 1016.6 hPa | 0 mm | - | - | - |
| 1778273362 | 21.11° C | 39% | 1016.7 hPa | 0 mm | - | - | - |
| 1778273324 | 21.11° C | 38% | 1016.8 hPa | 0 mm | - | - | - |
| 1778273242 | 21.11° C | 38% | 1016.8 hPa | 0 mm | - | - | - |
| 1778273183 | 21.67° C | 38% | 1016.8 hPa | 0 mm | - | - | - |
| 1778273121 | 21.67° C | 38% | 1016.9 hPa | 0 mm | - | - | - |
| 1778273063 | 21.67° C | 37% | 1017 hPa | 0 mm | - | - | - |
| 1778272998 | 21.67° C | 38% | 1017.2 hPa | 0 mm | - | - | - |
| 1778272938 | 21.67° C | 39% | 1017 hPa | 0 mm | - | - | - |
| 1778272877 | 21.67° C | 39% | 1017.3 hPa | 0 mm | - | - | - |
| 1778272818 | 21.67° C | 38% | 1017.3 hPa | 0 mm | - | - | - |
| 1778272757 | 21.67° C | 38% | 1017.3 hPa | 0 mm | - | - | - |
| 1778272698 | 21.67° C | 39% | 1017.3 hPa | 0 mm | - | - | - |
* Rain latest hour (hover to see other rain measurements)
** Current wind speed in m/s (hover to see current wind gust speed)